Meath Environmental Platform

Observations for Trim Market St

Time AQI Temp °C Hum % Pres Pa CO μg/m³ H₂S μg/m³ NO μg/m³ NO₂ μg/m³ O₃ μg/m³ SO₂ μg/m³ PM1 μg/m³ PM2.5 μg/m³ PM10 μg/m³
Monday 17 August 2026
00:36 2 19.4 80 2,147,483,647 0.02 0 1.81 0.64 45.58 0 0 1.18 4.69
00:35 2 19.4 80 2,147,483,647 0.02 0 1.76 0.7 52.85 0 0.71 1.65 5.25
00:32 2 19.5 80 2,147,483,647 0.01 0 1.75 1.13 53.53 0 0 1.66 5.25
00:31 2 19.5 80 2,147,483,647 0.01 0 1.76 0.54 44.61 0 0 1.18 4.12
00:30 2 19.5 80 2,147,483,647 0 0 1.78 0.57 50 0 0 1.18 3.55
00:28 2 19.5 80 2,147,483,647 0 0 1.86 0.6 51.39 0 0 1.65 4.12
00:17 2 19.6 80 2,147,483,647 0.02 0 1.86 0.26 45.89 0 0 1.17 3.56
00:16 2 19.6 80 2,147,483,647 0 0 1.86 0.22 44.15 0 0 1.64 5.26
00:15 2 19.6 80 2,147,483,647 0.01 0 1.86 0.15 49.81 0 0 1.64 4.12
00:14 2 19.6 80 2,147,483,647 0.01 0 1.84 0.47 52.01 0 0 2.11 4.69
00:13 2 19.6 80 2,147,483,647 0.02 0 1.82 0.12 46.79 0 0 1.17 3.56
00:11 2 19.6 80 2,147,483,647 0.01 0 1.81 0.12 45.21 0 0 1.17 3.56
00:10 2 19.6 80 2,147,483,647 0.02 0 1.88 0.08 47.71 0 0 1.17 3.56
00:08 2 19.6 80 2,147,483,647 0.03 0 1.89 0.76 52.49 0 0 1.16 3.56
00:06 2 19.7 80 2,147,483,647 0.03 0 1.9 0 44.34 0 0 1.63 4.13
00:04 2 19.7 80 2,147,483,647 0.02 0 1.78 0.05 53.72 0 0.71 2.11 4.69
00:01 2 19.7 80 2,147,483,647 0.03 0 1.81 9.7 63.58 0 0 1.17 4.13
Sunday 16 August 2026
23:59 2 19.7 80 2,147,483,647 0.02 0 1.93 0 50.76 0 0.71 1.17 3.56
23:57 2 19.7 80 2,147,483,647 0.02 0 1.86 0 46.68 0 0 1.16 4.7
23:53 2 19.7 80 2,147,483,647 0.02 0 1.9 0 43.9 0 0 1.64 4.13